カタログに戻る

SL-12 DEB

LostHEO
NORAD 26849·DEBRIS·🇷🇺 Russia

打ち上げ Dec 24, 1985 から Baikonur Cosmodrome

Loading…

次のパス (今後24時間)

TLE

古いSource: Space-Track

元期: Oct 27, 2025, 08:40 UTC

1 26849U 85118AC  25300.36177660 -.00000027  00000-0  00000-0 0  9998
2 26849  60.9146  31.2587 4142586  78.7309 357.8574  5.16634789  2535

AllMySatでSL-12 DEBをリアルタイム追跡

Download on the App Store